Content
SEND FEEDBACK

Daily
Averages
Monthly
Summary
United States of America

HAPPY JACK, ARIZONA


Home > North America > United States > Arizona
Elevation: 7480 feet     Latitude: 34 44N     Longitude: 111 25W

WEATHER
 
SELECT A DAY
Number of Records: 137,556;   Date Range: 1/4/95 - 10/19/14
 
SHARE

PRINT THIS DATA

[ ← Previous Day ]
WEATHER ALMANAC - AUGUST 8, 2014
[ Next Day → ]
[ °C ]   °F
Weather ElementAverageHighLow
Temperature79 °F89.6 °F (12:55 pm)68 °F (2:55 am)
Dewpoint38.9 °F42.8 °F (1:15 am)32 °F (7:35 pm)
Humidity24 %33 % (12:55 am)18 % (10:15 am)
Barometer30.13 in30.18 in (2:15 am)30.08 in (3:55 pm)
Wind Speed7.3 mph13.8 mph (3:15 pm)
Wind Gust19.6 mph (3:35 pm)
Weather ElementAverage
Visibility10 mi
Wind DirectionSE (131 °)

Weather ElementTotal
Precipitation---
Cooling Degree Days13.8 (Base 65)
Growing Degree Days28.8 (Base 50)
Averaged from 69 records on August 8, 2014
WEATHER CONDITIONS BREAKOUT
WIND DIRECTION BREAKOUT
WEATHER BY HOUR - AUGUST 8, 2014
[ °C ]   °F
Local TimeTemperatureDewpointHumidityBarometerVisibilityWind DirectionWind SpeedGust SpeedPrecipitationEventsConditions
12:15 AM73.4 °F32.0 °F22 %30.15 in10.0 miCalmClear
12:35 AM71.6 °F33.8 °F25 %30.15 in10.0 miNNE (30°)5.8 mphClear
12:55 AM71.6 °F32.0 °F23 %30.15 in10.0 miNNE (30°)4.6 mphClear
1:15 AM71.6 °F33.8 °F25 %30.14 in10.0 miNNE (30°)6.9 mphClear
1:35 AM69.8 °F33.8 °F27 %30.14 in10.0 miNNE (30°)8.1 mphClear
1:55 AM69.8 °F33.8 °F27 %30.14 in10.0 miNNE (30°)10.4 mphClear
2:15 AM69.8 °F33.8 °F27 %30.14 in10.0 miNNE (30°)11.5 mphClear
2:35 AM69.8 °F33.8 °F27 %30.14 in10.0 miNE (40°)11.5 mphClear
2:55 AM69.8 °F35.6 °F28 %30.13 in10.0 miNE (40°)10.4 mphClear
3:15 AM69.8 °F35.6 °F28 %30.14 in10.0 miNE (40°)9.2 mphClear
3:35 AM69.8 °F35.6 °F28 %30.14 in10.0 miNNE (30°)8.1 mphClear
3:55 AM69.8 °F35.6 °F28 %30.14 in10.0 miNE (40°)6.9 mphClear
4:15 AM69.8 °F35.6 °F28 %30.14 in10.0 miNE (40°)6.9 mphClear
4:35 AM68.0 °F35.6 °F30 %30.14 in10.0 miNE (40°)9.2 mphClear
4:55 AM68.0 °F35.6 °F30 %30.14 in10.0 miNNE (30°)10.4 mphClear
5:15 AM68.0 °F35.6 °F30 %30.14 in10.0 miNNE (30°)12.7 mphClear
5:35 AM68.0 °F35.6 °F30 %30.14 in10.0 miNNE (30°)12.7 mphClear
5:55 AM68.0 °F35.6 °F30 %30.15 in10.0 miNE (40°)11.5 mphClear
6:15 AM68.0 °F35.6 °F30 %30.16 in10.0 miNE (50°)9.2 mphClear
6:35 AM69.8 °F35.6 °F28 %30.16 in10.0 miNE (50°)9.2 mphClear
6:55 AM71.6 °F35.6 °F27 %30.16 in10.0 miNE (40°)9.2 mphClear
7:15 AM71.6 °F35.6 °F27 %30.17 in10.0 miNE (50°)8.1 mphClear
7:35 AM77.0 °F35.6 °F22 %30.17 in10.0 miENE (60°)4.6 mphClear
7:55 AM78.8 °F37.4 °F23 %30.17 in10.0 miSE (140°)3.5 mphClear
8:15 AM78.8 °F37.4 °F23 %30.17 in10.0 miCalmClear
8:35 AM80.6 °F37.4 °F21 %30.17 in10.0 miSSE (160°)3.5 mphClear
8:55 AM82.4 °F37.4 °F20 %30.17 in10.0 miSSE (160°)4.6 mphClear
9:35 AM80.6 °F37.4 °F21 %30.18 in10.0 miWSW (250°)5.8 mphClear
9:55 AM82.4 °F39.2 °F21 %30.18 in10.0 miWNW (300°)4.6 mphClear
10:15 AM84.2 °F41.0 °F22 %30.18 in10.0 miWNW (300°)10.4 mphClear
10:35 AM86.0 °F41.0 °F20 %30.18 in10.0 miWSW (250°)6.9 mphClear
10:55 AM86.0 °F41.0 °F20 %30.18 in10.0 miNW (320°)10.4 mphClear
11:15 AM87.8 °F41.0 °F19 %30.17 in10.0 miWest (270°)10.4 mphClear
11:35 AM87.8 °F41.0 °F19 %30.17 in10.0 miSW (230°)5.8 mph16.1 mphClear
11:55 AM87.8 °F41.0 °F19 %30.17 in10.0 miWNW (300°)9.2 mph18.4 mphClear
12:15 PM87.8 °F41.0 °F19 %30.17 in10.0 miCalmClear
12:35 PM87.8 °F41.0 °F19 %30.16 in10.0 miWSW (240°)10.4 mph17.3 mphScattered Clouds
12:55 PM86.0 °F41.0 °F20 %30.15 in10.0 miWNW (290°)13.8 mph17.3 mphMostly Cloudy
1:15 PM89.6 °F41.0 °F18 %30.15 in10.0 miWNW (300°)8.1 mphScattered Clouds
1:35 PM89.6 °F41.0 °F18 %30.14 in10.0 miSSW (200°)12.7 mph16.1 mphScattered Clouds
1:55 PM87.8 °F41.0 °F19 %30.14 in10.0 miWNW (290°)5.8 mphMostly Cloudy
2:15 PM89.6 °F41.0 °F18 %30.13 in10.0 miWSW (250°)9.2 mphOvercast
2:35 PM87.8 °F41.0 °F19 %30.12 in10.0 miWNW (300°)6.9 mph18.4 mphMostly Cloudy
2:55 PM87.8 °F41.0 °F19 %30.11 in10.0 miSSW (200°)6.9 mphScattered Clouds
3:15 PM89.6 °F41.0 °F18 %30.10 in10.0 miWSW (240°)5.8 mphScattered Clouds
3:35 PM89.6 °F41.0 °F18 %30.10 in10.0 miWSW (240°)4.6 mphScattered Clouds
3:55 PM89.6 °F41.0 °F18 %30.09 in10.0 miSouth (190°)8.1 mphClear
4:15 PM87.8 °F41.0 °F19 %30.09 in10.0 miSSW (210°)10.4 mph17.3 mphClear
4:35 PM86.0 °F41.0 °F20 %30.08 in10.0 miSouth (180°)3.5 mphClear
4:55 PM86.0 °F41.0 °F20 %30.08 in10.0 miSW (230°)4.6 mphClear
5:15 PM86.0 °F41.0 °F20 %30.08 in10.0 miWest (280°)13.8 mph19.6 mphClear
5:35 PM82.4 °F42.8 °F25 %30.08 in10.0 miWNW (300°)11.5 mphClear
5:55 PM84.2 °F42.8 °F23 %30.08 in10.0 miNW (310°)10.4 mphClear
6:15 PM84.2 °F41.0 °F22 %30.08 in10.0 miWest (280°)9.2 mphClear
6:35 PM82.4 °F41.0 °F23 %30.08 in10.0 miWNW (300°)6.9 mphClear
6:55 PM82.4 °F41.0 °F23 %30.08 in10.0 miNorth (350°)4.6 mphClear
7:15 PM80.6 °F41.0 °F24 %30.08 in10.0 miCalmClear
7:35 PM80.6 °F41.0 °F24 %30.09 in10.0 miEast (80°)3.5 mphClear
7:55 PM80.6 °F41.0 °F24 %30.09 in10.0 miCalmClear
8:15 PM80.6 °F41.0 °F24 %30.10 in10.0 miCalmClear
8:55 PM78.8 °F41.0 °F26 %30.12 in10.0 miNE (40°)8.1 mphClear
9:15 PM78.8 °F41.0 °F26 %30.12 in10.0 miNNE (30°)6.9 mphClear
9:35 PM77.0 °F42.8 °F29 %30.13 in10.0 miNNE (30°)9.2 mphClear
9:55 PM77.0 °F42.8 °F29 %30.13 in10.0 miNE (40°)9.2 mphClear
10:35 PM77.0 °F42.8 °F29 %30.13 in10.0 miNE (40°)4.6 mphClear
10:55 PM77.0 °F42.8 °F29 %30.13 in10.0 miNNE (20°)3.5 mphClear
11:15 PM75.2 °F42.8 °F31 %30.13 in10.0 miNorth (10°)4.6 mphClear
11:35 PM73.4 °F42.8 °F33 %30.13 in10.0 miNNE (20°)5.8 mphClear
11:55 PM73.4 °F42.8 °F33 %30.13 in10.0 miNE (40°)6.9 mphClear
Hourly data recorded from KSEZ, located miles away from Happy Jack, Arizona







STORIES FROM OUR PARTNERS